Time,TemperatureF,DewpointF,PressureIn,WindDirection,WindDirectionDegrees,WindSpeedMPH,WindSpeedGustMPH,Humidity,HourlyPrecipIn,Conditions,Clouds,dailyrainin,SoftwareType,DateUTC
2013-04-06 00:00:00,52.9,50.3,29.56,ESE,121,1.0,2.0,91,0.00,CLR,,0.00,WeatherDisplay:10.37,2013-04-05 22:00:00,
2013-04-06 00:05:00,52.9,50.3,29.56,ESE,112,1.0,2.0,91,0.00,CLR,,0.00,WeatherDisplay:10.37,2013-04-05 22:05:00,
2013-04-06 00:10:00,52.9,50.3,29.55,ESE,106,1.0,4.0,91,0.00,CLR,,0.00,WeatherDisplay:10.37,2013-04-05 22:10:00,
2013-04-06 00:15:00,52.9,50.3,29.55,East,84,1.0,4.0,91,0.00,CLR,,0.00,WeatherDisplay:10.37,2013-04-05 22:15:00,
2013-04-06 00:20:00,52.9,50.3,29.55,ENE,68,1.0,4.0,91,0.00,CLR,,0.00,WeatherDisplay:10.37,2013-04-05 22:20:00,
2013-04-06 00:25:00,52.3,49.8,29.55,ENE,61,1.0,4.0,91,0.00,CLR,,0.00,WeatherDisplay:10.37,2013-04-05 22:25:00,
2013-04-06 00:30:00,52.3,49.8,29.55,NE,50,1.0,2.0,91,0.00,CLR,,0.00,WeatherDisplay:10.37,2013-04-05 22:30:00,
2013-04-06 00:35:00,52.3,49.8,29.55,NE,45,1.0,2.0,91,0.00,CLR,,0.00,WeatherDisplay:10.37,2013-04-05 22:35:00,
2013-04-06 00:40:00,51.8,49.3,29.55,ENE,58,1.0,2.0,91,0.00,CLR,,0.00,WeatherDisplay:10.37,2013-04-05 22:40:00,
2013-04-06 00:45:00,51.8,49.3,29.55,East,81,1.0,2.0,91,0.00,CLR,,0.00,WeatherDisplay:10.37,2013-04-05 22:45:00,
2013-04-06 00:50:00,51.8,49.3,29.55,East,90,1.0,2.0,91,0.00,CLR,,0.00,WeatherDisplay:10.37,2013-04-05 22:50:00,
2013-04-06 00:55:00,51.6,49.1,29.55,ENE,71,0.0,2.0,91,0.00,CLR,,0.00,WeatherDisplay:10.37,2013-04-05 22:55:00,
2013-04-06 01:00:00,51.6,49.1,29.55,NE,50,0.0,2.0,91,0.00,CLR,,0.00,WeatherDisplay:10.37,2013-04-05 23:00:00,
2013-04-06 01:05:00,51.6,49.1,29.55,NE,45,0.0,2.0,91,0.00,CLR,,0.00,WeatherDisplay:10.37,2013-04-05 23:05:00,
2013-04-06 01:10:00,51.6,49.1,29.55,NE,45,0.0,2.0,91,0.00,CLR,,0.00,WeatherDisplay:10.37,2013-04-05 23:10:00,
2013-04-06 01:15:00,51.6,49.1,29.55,NE,45,0.0,1.0,91,0.00,CLR,,0.00,WeatherDisplay:10.37,2013-04-05 23:15:00,
2013-04-06 01:20:00,51.6,49.1,29.55,NE,45,0.0,1.0,91,0.00,CLR,,0.00,WeatherDisplay:10.37,2013-04-05 23:20:00,
2013-04-06 01:25:00,51.6,49.1,29.55,ENE,68,0.0,1.0,91,0.00,CLR,,0.00,WeatherDisplay:10.37,2013-04-05 23:25:00,
2013-04-06 01:30:00,51.6,49.1,29.55,ESE,121,0.0,0.0,91,0.00,CLR,,0.00,WeatherDisplay:10.37,2013-04-05 23:30:00,
2013-04-06 01:35:00,51.6,49.1,29.55,SE,135,0.0,0.0,91,0.00,CLR,,0.00,WeatherDisplay:10.37,2013-04-05 23:35:00,
2013-04-06 01:40:00,51.4,49.2,29.54,SSE,148,0.0,0.0,92,0.00,CLR,,0.00,WeatherDisplay:10.37,2013-04-05 23:40:00,
2013-04-06 01:45:00,51.4,49.2,29.54,South,171,0.0,0.0,92,0.00,CLR,,0.00,WeatherDisplay:10.37,2013-04-05 23:45:00,
2013-04-06 01:50:00,51.4,49.2,29.54,South,180,0.0,0.0,92,0.00,CLR,,0.00,WeatherDisplay:10.37,2013-04-05 23:50:00,
2013-04-06 01:55:00,51.3,49.0,29.54,SSW,203,0.0,0.0,92,0.00,CLR,,0.00,WeatherDisplay:10.37,2013-04-05 23:55:00,
2013-04-06 02:00:00,51.3,49.0,29.54,WSW,256,0.0,0.0,92,0.00,CLR,,0.00,WeatherDisplay:10.37,2013-04-06 00:00:00,
2013-04-06 02:05:00,51.3,49.0,29.54,West,270,0.0,0.0,92,0.00,CLR,,0.00,WeatherDisplay:10.37,2013-04-06 00:05:00,
2013-04-06 02:10:00,51.3,49.0,29.54,West,270,0.0,0.0,92,0.00,CLR,,0.00,WeatherDisplay:10.37,2013-04-06 00:10:00,
2013-04-06 02:15:00,51.3,49.0,29.54,West,270,0.0,0.0,92,0.00,CLR,,0.00,WeatherDisplay:10.37,2013-04-06 00:15:00,
2013-04-06 02:20:00,51.3,49.0,29.54,West,270,0.0,0.0,92,0.00,CLR,,0.00,WeatherDisplay:10.37,2013-04-06 00:20:00,
2013-04-06 02:25:00,51.1,48.8,29.54,WSW,247,0.0,0.0,92,0.00,CLR,,0.00,WeatherDisplay:10.37,2013-04-06 00:25:00,
2013-04-06 02:30:00,51.1,48.8,29.54,SSW,194,0.0,0.0,92,0.00,CLR,,0.00,WeatherDisplay:10.37,2013-04-06 00:30:00,
2013-04-06 02:35:00,51.1,48.8,29.54,South,180,0.0,0.0,92,0.00,CLR,,0.00,WeatherDisplay:10.37,2013-04-06 00:35:00,
2013-04-06 02:40:00,51.1,48.8,29.53,SSW,204,0.0,0.0,92,0.00,CLR,,0.00,WeatherDisplay:10.37,2013-04-06 00:40:00,
2013-04-06 02:45:00,51.1,48.8,29.53,WNW,303,0.0,0.0,92,0.00,CLR,,0.00,WeatherDisplay:10.37,2013-04-06 00:45:00,
2013-04-06 02:50:00,51.1,48.8,29.53,NW,315,0.0,0.0,92,0.00,CLR,,0.00,WeatherDisplay:10.37,2013-04-06 00:50:00,
2013-04-06 02:55:00,51.3,49.0,29.54,WNW,302,0.0,0.0,92,0.00,CLR,,0.00,WeatherDisplay:10.37,2013-04-06 00:55:00,
2013-04-06 03:00:00,51.3,49.0,29.54,West,279,0.0,0.0,92,0.00,CLR,,0.00,WeatherDisplay:10.37,2013-04-06 01:00:00,
2013-04-06 03:05:00,51.3,49.0,29.54,West,270,0.0,0.0,92,0.00,CLR,,0.00,WeatherDisplay:10.37,2013-04-06 01:05:00,
2013-04-06 03:10:00,51.3,49.0,29.53,WSW,257,0.0,0.0,92,0.00,CLR,,0.00,WeatherDisplay:10.37,2013-04-06 01:10:00,
2013-04-06 03:15:00,51.3,49.0,29.53,SW,234,0.0,0.0,92,0.00,CLR,,0.00,WeatherDisplay:10.37,2013-04-06 01:15:00,
2013-04-06 03:20:00,51.3,49.0,29.53,SW,225,0.0,0.0,92,0.00,CLR,,0.00,WeatherDisplay:10.37,2013-04-06 01:20:00,
2013-04-06 03:25:00,51.8,49.5,29.54,NE,45,3.0,6.0,92,0.00,CLR,,0.00,WeatherDisplay:10.37,2013-04-06 01:25:00,
2013-04-06 03:30:00,51.8,49.5,29.54,NE,45,3.0,6.0,92,0.00,CLR,,0.00,WeatherDisplay:10.37,2013-04-06 01:30:00,
2013-04-06 03:35:00,51.8,49.5,29.54,NE,45,3.0,6.0,92,0.00,CLR,,0.00,WeatherDisplay:10.37,2013-04-06 01:35:00,
2013-04-06 03:40:00,52.0,49.7,29.54,NE,48,1.0,6.0,92,0.00,CLR,,0.00,WeatherDisplay:10.37,2013-04-06 01:40:00,
2013-04-06 03:45:00,52.0,49.7,29.54,ENE,66,1.0,2.0,92,0.00,CLR,,0.00,WeatherDisplay:10.37,2013-04-06 01:45:00,
2013-04-06 03:50:00,52.0,49.7,29.54,East,90,1.0,2.0,92,0.00,CLR,,0.00,WeatherDisplay:10.37,2013-04-06 01:50:00,
2013-04-06 03:55:00,52.5,50.3,29.54,ENE,66,1.0,3.0,92,0.00,CLR,,0.00,WeatherDisplay:10.37,2013-04-06 01:55:00,
2013-04-06 04:00:00,52.5,50.3,29.54,NNW,327,1.0,3.0,92,0.00,CLR,,0.00,WeatherDisplay:10.37,2013-04-06 02:00:00,
2013-04-06 04:05:00,52.5,50.3,29.54,NW,315,1.0,3.0,92,0.00,CLR,,0.00,WeatherDisplay:10.37,2013-04-06 02:05:00,
2013-04-06 04:10:00,53.4,51.2,29.54,North,2,0.0,3.0,92,0.00,CLR,,0.00,WeatherDisplay:10.37,2013-04-06 02:10:00,
2013-04-06 04:15:00,53.4,51.2,29.54,East,83,0.0,0.0,92,0.00,CLR,,0.00,WeatherDisplay:10.37,2013-04-06 02:15:00,
2013-04-06 04:20:00,53.4,51.2,29.54,East,90,0.0,0.0,92,0.00,CLR,,0.00,WeatherDisplay:10.37,2013-04-06 02:20:00,
2013-04-06 04:25:00,54.7,52.4,29.55,ENE,66,0.0,2.0,92,0.00,CLR,,0.00,WeatherDisplay:10.37,2013-04-06 02:25:00,
2013-04-06 04:30:00,54.7,52.4,29.55,NNW,327,0.0,2.0,92,0.00,CLR,,0.00,WeatherDisplay:10.37,2013-04-06 02:30:00,
2013-04-06 04:35:00,54.7,52.4,29.55,NW,315,0.0,2.0,92,0.00,CLR,,0.00,WeatherDisplay:10.37,2013-04-06 02:35:00,
2013-04-06 04:40:00,55.8,53.2,29.55,NW,315,1.0,2.0,91,0.00,CLR,,0.00,WeatherDisplay:10.37,2013-04-06 02:40:00,
2013-04-06 04:45:00,55.8,53.2,29.55,NW,315,1.0,2.0,91,0.00,CLR,,0.00,WeatherDisplay:10.37,2013-04-06 02:45:00,
2013-04-06 04:50:00,55.8,53.2,29.55,NW,315,1.0,2.0,91,0.00,CLR,,0.00,WeatherDisplay:10.37,2013-04-06 02:50:00,
2013-04-06 04:55:00,56.7,53.8,29.55,NW,320,0.0,2.0,90,0.00,CLR,,0.00,WeatherDisplay:10.37,2013-04-06 02:55:00,
2013-04-06 05:00:00,56.7,53.8,29.55,NNW,332,0.0,2.0,90,0.00,CLR,,0.00,WeatherDisplay:10.37,2013-04-06 03:00:00,
2013-04-06 05:05:00,56.7,53.8,29.55,NNW,338,0.0,2.0,90,0.00,CLR,,0.00,WeatherDisplay:10.37,2013-04-06 03:05:00,
2013-04-06 05:10:00,58.1,54.6,29.55,North,3,0.0,2.0,88,0.00,CLR,,0.00,WeatherDisplay:10.37,2013-04-06 03:10:00,
2013-04-06 05:15:00,58.1,54.6,29.55,ENE,76,0.0,2.0,88,0.00,CLR,,0.00,WeatherDisplay:10.37,2013-04-06 03:15:00,
2013-04-06 05:20:00,58.1,54.6,29.55,East,90,0.0,2.0,88,0.00,CLR,,0.00,WeatherDisplay:10.37,2013-04-06 03:20:00,
2013-04-06 05:25:00,59.2,55.3,29.56,East,90,1.0,3.0,87,0.00,CLR,,0.00,WeatherDisplay:10.37,2013-04-06 03:25:00,
2013-04-06 05:30:00,59.2,55.3,29.56,East,90,1.0,3.0,87,0.00,CLR,,0.00,WeatherDisplay:10.37,2013-04-06 03:30:00,
2013-04-06 05:35:00,59.2,55.3,29.56,East,90,1.0,3.0,87,0.00,CLR,,0.00,WeatherDisplay:10.37,2013-04-06 03:35:00,
2013-04-06 05:40:00,59.9,55.4,29.56,ENE,67,1.0,3.0,85,0.00,CLR,,0.00,WeatherDisplay:10.37,2013-04-06 03:40:00,
2013-04-06 05:45:00,59.9,55.4,29.56,NNE,14,1.0,2.0,85,0.00,CLR,,0.00,WeatherDisplay:10.37,2013-04-06 03:45:00,
2013-04-06 05:50:00,59.9,55.4,29.56,North,0,1.0,2.0,85,0.00,CLR,,0.00,WeatherDisplay:10.37,2013-04-06 03:50:00,
2013-04-06 05:55:00,61.0,56.1,29.56,NNE,19,0.0,3.0,84,0.00,CLR,,0.00,WeatherDisplay:10.37,2013-04-06 03:55:00,
2013-04-06 06:00:00,61.0,56.1,29.56,NE,40,0.0,3.0,84,0.00,CLR,,0.00,WeatherDisplay:10.37,2013-04-06 04:00:00,
2013-04-06 06:05:00,61.0,56.1,29.56,NE,45,0.0,3.0,84,0.00,CLR,,0.00,WeatherDisplay:10.37,2013-04-06 04:05:00,
2013-04-06 06:10:00,61.3,55.5,29.56,ENE,69,0.0,3.0,81,0.00,CLR,,0.00,WeatherDisplay:10.37,2013-04-06 04:10:00,
2013-04-06 06:15:00,61.3,55.5,29.56,SSE,168,0.0,2.0,81,0.00,CLR,,0.00,WeatherDisplay:10.37,2013-04-06 04:15:00,
2013-04-06 06:20:00,61.3,55.5,29.56,South,180,0.0,2.0,81,0.00,CLR,,0.00,WeatherDisplay:10.37,2013-04-06 04:20:00,
2013-04-06 06:25:00,62.2,55.6,29.57,SSW,192,1.0,3.0,79,0.00,CLR,,0.00,WeatherDisplay:10.37,2013-04-06 04:25:00,
2013-04-06 06:30:00,62.2,55.6,29.57,WNW,292,1.0,3.0,79,0.00,CLR,,0.00,WeatherDisplay:10.37,2013-04-06 04:30:00,
2013-04-06 06:35:00,62.2,55.6,29.57,NW,315,1.0,3.0,79,0.00,CLR,,0.00,WeatherDisplay:10.37,2013-04-06 04:35:00,
2013-04-06 06:40:00,63.1,55.8,29.57,NW,315,0.0,3.0,77,0.00,CLR,,0.00,WeatherDisplay:10.37,2013-04-06 04:40:00,
2013-04-06 06:45:00,63.1,55.8,29.57,NW,315,0.0,2.0,77,0.00,CLR,,0.00,WeatherDisplay:10.37,2013-04-06 04:45:00,
2013-04-06 06:50:00,63.1,55.8,29.57,NW,315,0.0,2.0,77,0.00,CLR,,0.00,WeatherDisplay:10.37,2013-04-06 04:50:00,
2013-04-06 06:55:00,63.7,55.2,29.57,NW,315,1.0,4.0,74,0.00,CLR,,0.00,WeatherDisplay:10.37,2013-04-06 04:55:00,
2013-04-06 07:00:00,63.7,55.2,29.57,NW,315,1.0,4.0,74,0.00,CLR,,0.00,WeatherDisplay:10.37,2013-04-06 05:00:00,
2013-04-06 07:05:00,63.7,55.2,29.57,NW,315,1.0,4.0,74,0.00,CLR,,0.00,WeatherDisplay:10.37,2013-04-06 05:05:00,
2013-04-06 07:10:00,64.4,54.8,29.56,NW,308,1.0,4.0,71,0.00,CLR,,0.00,WeatherDisplay:10.37,2013-04-06 05:10:00,
2013-04-06 07:15:00,64.4,54.8,29.56,WNW,286,1.0,2.0,71,0.00,CLR,,0.00,WeatherDisplay:10.37,2013-04-06 05:15:00,
2013-04-06 07:20:00,64.4,54.8,29.56,West,270,1.0,2.0,71,0.00,CLR,,0.00,WeatherDisplay:10.37,2013-04-06 05:20:00,
2013-04-06 07:25:00,65.3,55.3,29.56,West,270,0.0,2.0,70,0.00,CLR,,0.00,WeatherDisplay:10.37,2013-04-06 05:25:00,
2013-04-06 07:30:00,65.3,55.3,29.56,West,270,0.0,2.0,70,0.00,CLR,,0.00,WeatherDisplay:10.37,2013-04-06 05:30:00,
2013-04-06 07:35:00,65.3,55.3,29.56,West,270,0.0,2.0,70,0.00,CLR,,0.00,WeatherDisplay:10.37,2013-04-06 05:35:00,
2013-04-06 07:40:00,66.2,55.3,29.56,WNW,283,0.0,2.0,68,0.00,CLR,,0.00,WeatherDisplay:10.37,2013-04-06 05:40:00,
2013-04-06 07:45:00,66.2,55.3,29.56,NW,306,0.0,1.0,68,0.00,CLR,,0.00,WeatherDisplay:10.37,2013-04-06 05:45:00,
2013-04-06 07:50:00,66.2,55.3,29.56,NW,315,0.0,1.0,68,0.00,CLR,,0.00,WeatherDisplay:10.37,2013-04-06 05:50:00,
2013-04-06 07:55:00,66.9,55.6,29.56,NW,315,2.0,4.0,67,0.00,CLR,,0.00,WeatherDisplay:10.37,2013-04-06 05:55:00,
2013-04-06 08:00:00,66.9,55.6,29.56,SE,135,2.0,4.0,67,0.00,CLR,,0.00,WeatherDisplay:10.37,2013-04-06 06:00:00,
2013-04-06 08:05:00,66.9,55.6,29.56,SE,135,2.0,4.0,67,0.00,CLR,,0.00,WeatherDisplay:10.37,2013-04-06 06:05:00,
2013-04-06 08:10:00,67.5,55.3,29.55,SE,143,0.0,4.0,65,0.00,CLR,,0.00,WeatherDisplay:10.37,2013-04-06 06:10:00,
2013-04-06 08:15:00,67.5,55.3,29.55,SSE,166,0.0,1.0,65,0.00,CLR,,0.00,WeatherDisplay:10.37,2013-04-06 06:15:00,
2013-04-06 08:20:00,67.5,55.3,29.55,South,180,0.0,1.0,65,0.00,CLR,,0.00,WeatherDisplay:10.37,2013-04-06 06:20:00,
2013-04-06 08:25:00,67.5,54.4,29.55,South,187,1.0,2.0,63,0.00,CLR,,0.00,WeatherDisplay:10.37,2013-04-06 06:25:00,
2013-04-06 08:30:00,67.5,54.4,29.55,NW,323,1.0,2.0,63,0.00,CLR,,0.00,WeatherDisplay:10.37,2013-04-06 06:30:00,
2013-04-06 08:35:00,67.5,54.4,29.55,NNW,338,1.0,2.0,63,0.00,CLR,,0.00,WeatherDisplay:10.37,2013-04-06 06:35:00,
2013-04-06 08:40:00,67.5,54.4,29.55,NNE,24,3.0,4.0,63,0.00,CLR,,0.00,WeatherDisplay:10.37,2013-04-06 06:40:00,
2013-04-06 08:45:00,67.5,54.4,29.55,NE,42,3.0,4.0,63,0.00,CLR,,0.00,WeatherDisplay:10.37,2013-04-06 06:45:00,
2013-04-06 08:50:00,67.5,54.4,29.55,NE,45,3.0,4.0,63,0.00,CLR,,0.00,WeatherDisplay:10.37,2013-04-06 06:50:00,
2013-04-06 10:00:00,68.5,57.1,29.52,SSE,160,5.0,9.0,67,0.00,CLR,,0.00,WeatherDisplay:10.37,2013-04-06 08:00:00,
2013-04-06 10:05:00,68.5,57.1,29.52,SE,145,5.0,9.0,67,0.00,CLR,,0.00,WeatherDisplay:10.37,2013-04-06 08:05:00,
2013-04-06 10:10:00,68.5,57.1,29.52,SE,135,5.0,9.0,67,0.00,CLR,,0.00,WeatherDisplay:10.37,2013-04-06 08:10:00,
2013-04-06 10:15:00,68.0,56.2,29.52,SE,142,2.0,9.0,66,0.00,CLR,,0.00,WeatherDisplay:10.37,2013-04-06 08:15:00,
2013-04-06 10:20:00,68.0,56.2,29.52,South,184,2.0,5.0,66,0.00,CLR,,0.00,WeatherDisplay:10.37,2013-04-06 08:20:00,
2013-04-06 10:25:00,68.0,56.2,29.52,SW,225,2.0,5.0,66,0.00,CLR,,0.00,WeatherDisplay:10.37,2013-04-06 08:25:00,
2013-04-06 10:30:00,67.8,56.5,29.51,SSW,211,2.0,5.0,67,0.00,CLR,,0.00,WeatherDisplay:10.37,2013-04-06 08:30:00,
2013-04-06 10:35:00,67.8,56.5,29.51,SSE,158,2.0,5.0,67,0.00,CLR,,0.00,WeatherDisplay:10.37,2013-04-06 08:35:00,
2013-04-06 10:40:00,67.8,56.5,29.51,SE,135,2.0,5.0,67,0.00,CLR,,0.00,WeatherDisplay:10.37,2013-04-06 08:40:00,
2013-04-06 10:45:00,68.4,56.6,29.51,SE,144,2.0,5.0,66,0.00,CLR,,0.00,WeatherDisplay:10.37,2013-04-06 08:45:00,
2013-04-06 10:50:00,68.4,56.6,29.51,SSE,167,2.0,5.0,66,0.00,CLR,,0.00,WeatherDisplay:10.37,2013-04-06 08:50:00,
2013-04-06 10:55:00,68.4,56.6,29.51,South,180,2.0,5.0,66,0.00,CLR,,0.00,WeatherDisplay:10.37,2013-04-06 08:55:00,
2013-04-06 11:00:00,69.3,57.4,29.50,South,180,1.0,5.0,66,0.00,CLR,,0.00,WeatherDisplay:10.37,2013-04-06 09:00:00,
2013-04-06 11:05:00,69.3,57.4,29.50,South,180,1.0,4.0,66,0.00,CLR,,0.00,WeatherDisplay:10.37,2013-04-06 09:05:00,
2013-04-06 11:10:00,69.3,57.4,29.50,South,180,1.0,4.0,66,0.00,CLR,,0.00,WeatherDisplay:10.37,2013-04-06 09:10:00,
2013-04-06 11:15:00,68.7,56.5,29.50,SW,229,3.0,5.0,65,0.00,CLR,,0.00,WeatherDisplay:10.37,2013-04-06 09:15:00,
2013-04-06 11:20:00,68.7,56.5,29.50,West,265,3.0,5.0,65,0.00,CLR,,0.00,WeatherDisplay:10.37,2013-04-06 09:20:00,
2013-04-06 11:25:00,68.7,56.5,29.50,West,270,3.0,5.0,65,0.00,CLR,,0.00,WeatherDisplay:10.37,2013-04-06 09:25:00,
2013-04-06 11:30:00,69.3,57.0,29.50,West,263,1.0,5.0,65,0.00,CLR,,0.00,WeatherDisplay:10.37,2013-04-06 09:30:00,
2013-04-06 11:35:00,69.3,57.0,29.50,SW,221,1.0,3.0,65,0.00,CLR,,0.00,WeatherDisplay:10.37,2013-04-06 09:35:00,
2013-04-06 11:40:00,69.3,57.0,29.50,South,180,1.0,3.0,65,0.00,CLR,,0.00,WeatherDisplay:10.37,2013-04-06 09:40:00,
2013-04-06 11:45:00,69.4,57.2,29.49,South,180,1.0,4.0,65,0.00,CLR,,0.00,WeatherDisplay:10.37,2013-04-06 09:45:00,
2013-04-06 11:50:00,69.4,57.2,29.49,North,0,1.0,4.0,65,0.00,CLR,,0.00,WeatherDisplay:10.37,2013-04-06 09:50:00,
2013-04-06 11:55:00,69.4,57.2,29.49,North,0,1.0,4.0,65,0.00,CLR,,0.00,WeatherDisplay:10.37,2013-04-06 09:55:00,
2013-04-06 12:00:00,69.3,56.6,29.48,NNW,348,1.0,4.0,64,0.00,CLR,,0.00,WeatherDisplay:10.37,2013-04-06 10:00:00,
2013-04-06 12:05:00,69.3,56.6,29.48,NW,311,1.0,4.0,64,0.00,CLR,,0.00,WeatherDisplay:10.37,2013-04-06 10:05:00,
2013-04-06 12:10:00,69.3,56.6,29.48,WNW,292,1.0,4.0,64,0.00,CLR,,0.00,WeatherDisplay:10.37,2013-04-06 10:10:00,
2013-04-06 12:15:00,69.6,56.9,29.48,WNW,289,0.0,4.0,64,0.00,CLR,,0.00,WeatherDisplay:10.37,2013-04-06 10:15:00,
2013-04-06 12:20:00,69.6,56.9,29.48,West,278,0.0,2.0,64,0.00,CLR,,0.00,WeatherDisplay:10.37,2013-04-06 10:20:00,
2013-04-06 12:25:00,69.6,56.9,29.48,West,270,0.0,2.0,64,0.00,CLR,,0.00,WeatherDisplay:10.37,2013-04-06 10:25:00,
2013-04-06 12:30:00,69.4,56.3,29.47,WNW,289,1.0,3.0,63,0.00,CLR,,0.00,WeatherDisplay:10.37,2013-04-06 10:30:00,
2013-04-06 12:35:00,69.4,56.3,29.47,NNW,343,1.0,3.0,63,0.00,CLR,,0.00,WeatherDisplay:10.37,2013-04-06 10:35:00,
2013-04-06 12:40:00,69.4,56.3,29.47,North,0,1.0,3.0,63,0.00,CLR,,0.00,WeatherDisplay:10.37,2013-04-06 10:40:00,
2013-04-06 12:45:00,69.3,56.1,29.48,North,350,6.0,8.0,63,0.00,CLR,,0.00,WeatherDisplay:10.37,2013-04-06 10:45:00,
2013-04-06 12:50:00,69.3,56.1,29.48,NNW,340,6.0,8.0,63,0.00,CLR,,0.00,WeatherDisplay:10.37,2013-04-06 10:50:00,
2013-04-06 12:54:00,67.5,54.0,29.54,South,180,4.6,4.6,62,0.00,CLR,,0.00,WeatherDisplay:10.37,2013-04-06 10:54:00,
2013-04-06 12:55:00,67.5,54.0,29.54,South,180,4.6,4.6,62,0.00,CLR,,0.00,WeatherDisplay:10.37,2013-04-06 10:55:00,
2013-04-06 13:00:00,67.6,55.0,29.54,SW,225,4.6,4.6,64,0.00,CLR,,0.00,WeatherDisplay:10.37,2013-04-06 11:00:00,
2013-04-06 13:05:00,67.6,55.0,29.54,SW,225,3.5,3.5,64,0.00,CLR,,0.00,WeatherDisplay:10.37,2013-04-06 11:05:00,
2013-04-06 13:10:00,67.8,55.2,29.54,East,90,6.9,6.9,64,0.00,CLR,,0.00,WeatherDisplay:10.37,2013-04-06 11:10:00,
2013-04-06 13:15:00,68.2,56.0,29.54,SE,135,6.9,6.9,65,0.00,CLR,,0.00,WeatherDisplay:10.37,2013-04-06 11:15:00,
2013-04-06 13:20:00,68.2,55.5,29.53,East,90,5.8,5.8,64,0.00,CLR,,0.00,WeatherDisplay:10.37,2013-04-06 11:20:00,
2013-04-06 13:25:00,68.2,55.5,29.54,SE,135,3.5,3.5,64,0.00,CLR,,0.00,WeatherDisplay:10.37,2013-04-06 11:25:00,
2013-04-06 13:30:00,68.0,55.4,29.53,SE,135,8.1,8.1,64,0.00,CLR,,0.00,WeatherDisplay:10.37,2013-04-06 11:30:00,
2013-04-06 13:33:00,67.8,55.6,29.53,SE,135,3.5,3.5,65,0.00,CLR,,0.00,WeatherDisplay:10.37,2013-04-06 11:33:00,
2013-04-06 13:35:00,67.1,55.4,29.47,West,278,2.0,4.0,66,0.00,CLR,,0.00,WeatherDisplay:10.37,2013-04-06 11:35:00,
2013-04-06 13:38:00,68.0,56.2,29.53,South,180,6.9,6.9,66,0.00,CLR,,0.00,WeatherDisplay:10.37,2013-04-06 11:38:00,
2013-04-06 13:40:00,67.1,55.4,29.47,WNW,292,2.0,4.0,66,0.00,CLR,,0.00,WeatherDisplay:10.37,2013-04-06 11:40:00,
2013-04-06 13:43:00,68.0,56.2,29.53,West,270,4.6,4.6,66,0.00,CLR,,0.00,WeatherDisplay:10.37,2013-04-06 11:43:00,
2013-04-06 13:45:00,66.0,54.7,29.47,WNW,284,6.0,7.0,67,0.00,CLR,,0.00,WeatherDisplay:10.37,2013-04-06 11:45:00,
2013-04-06 13:48:00,68.4,56.6,29.53,SSE,158,4.6,4.6,66,0.00,CLR,,0.00,WeatherDisplay:10.37,2013-04-06 11:48:00,
2013-04-06 13:50:00,66.0,54.7,29.47,West,273,6.0,7.0,67,0.00,CLR,,0.00,WeatherDisplay:10.37,2013-04-06 11:50:00,
2013-04-06 13:53:00,68.2,56.4,29.53,South,180,10.4,10.4,66,0.00,CLR,,0.00,WeatherDisplay:10.37,2013-04-06 11:53:00,
2013-04-06 13:55:00,66.0,54.7,29.47,West,270,6.0,7.0,67,0.00,CLR,,0.00,WeatherDisplay:10.37,2013-04-06 11:55:00,
2013-04-06 13:58:00,67.8,56.0,29.53,South,180,9.2,9.2,66,0.00,CLR,,0.00,WeatherDisplay:10.37,2013-04-06 11:58:00,
2013-04-06 14:00:00,65.5,54.6,29.47,West,270,3.0,7.0,68,0.00,CLR,,0.00,WeatherDisplay:10.37,2013-04-06 12:00:00,
2013-04-06 14:05:00,65.5,54.6,29.47,West,270,3.0,5.0,68,0.00,CLR,,0.00,WeatherDisplay:10.37,2013-04-06 12:05:00,
2013-04-06 14:10:00,65.5,54.6,29.47,West,270,3.0,5.0,68,0.00,CLR,,0.00,WeatherDisplay:10.37,2013-04-06 12:10:00,
2013-04-06 14:15:00,64.6,54.2,29.48,West,276,2.0,5.0,69,0.00,CLR,,0.00,WeatherDisplay:10.37,2013-04-06 12:15:00,
2013-04-06 14:20:00,64.6,54.2,29.48,WNW,298,2.0,5.0,69,0.00,CLR,,0.00,WeatherDisplay:10.37,2013-04-06 12:20:00,
2013-04-06 14:25:00,64.6,54.2,29.48,NW,315,2.0,5.0,69,0.00,CLR,,0.00,WeatherDisplay:10.37,2013-04-06 12:25:00,
2013-04-06 14:30:00,63.9,53.5,29.47,WNW,300,5.0,10.0,69,0.00,CLR,,0.00,WeatherDisplay:10.37,2013-04-06 12:30:00,
2013-04-06 14:35:00,63.9,53.5,29.47,West,277,5.0,10.0,69,0.00,CLR,,0.00,WeatherDisplay:10.37,2013-04-06 12:35:00,
2013-04-06 14:40:00,63.9,53.5,29.47,West,270,5.0,10.0,69,0.00,CLR,,0.00,WeatherDisplay:10.37,2013-04-06 12:40:00,
2013-04-06 14:45:00,63.0,52.6,29.47,West,267,1.0,10.0,69,0.00,CLR,,0.00,WeatherDisplay:10.37,2013-04-06 12:45:00,
2013-04-06 14:50:00,63.0,52.6,29.47,WSW,250,1.0,5.0,69,0.00,CLR,,0.00,WeatherDisplay:10.37,2013-04-06 12:50:00,
2013-04-06 14:55:00,63.0,52.6,29.47,SW,225,1.0,5.0,69,0.00,CLR,,0.00,WeatherDisplay:10.37,2013-04-06 12:55:00,
2013-04-06 15:00:00,62.4,52.5,29.47,SW,229,1.0,5.0,70,0.00,CLR,,0.00,WeatherDisplay:10.37,2013-04-06 13:00:00,
2013-04-06 15:05:00,62.4,52.5,29.47,WSW,247,1.0,4.0,70,0.00,CLR,,0.00,WeatherDisplay:10.37,2013-04-06 13:05:00,
2013-04-06 15:10:00,62.4,52.5,29.47,West,270,1.0,4.0,70,0.00,CLR,,0.00,WeatherDisplay:10.37,2013-04-06 13:10:00,
2013-04-06 15:15:00,62.1,52.5,29.47,NW,305,1.0,4.0,71,0.00,CLR,,0.00,WeatherDisplay:10.37,2013-04-06 13:15:00,
2013-04-06 15:20:00,62.1,52.5,29.47,NNE,12,1.0,3.0,71,0.00,CLR,,0.00,WeatherDisplay:10.37,2013-04-06 13:20:00,
2013-04-06 15:25:00,62.1,52.5,29.47,NNE,22,1.0,3.0,71,0.00,CLR,,0.00,WeatherDisplay:10.37,2013-04-06 13:25:00,
2013-04-06 15:30:00,61.7,53.0,29.48,NNE,19,1.0,3.0,73,0.00,CLR,,0.00,WeatherDisplay:10.37,2013-04-06 13:30:00,
2013-04-06 15:35:00,61.7,53.0,29.48,NW,304,1.0,3.0,73,0.00,CLR,,0.00,WeatherDisplay:10.37,2013-04-06 13:35:00,
2013-04-06 15:40:00,61.7,53.0,29.48,SW,225,1.0,3.0,73,0.00,CLR,,0.00,WeatherDisplay:10.37,2013-04-06 13:40:00,
2013-04-06 15:45:00,61.3,53.0,29.48,WSW,249,3.0,5.0,74,0.00,CLR,,0.00,WeatherDisplay:10.37,2013-04-06 13:45:00,
2013-04-06 15:50:00,61.3,53.0,29.48,West,267,3.0,5.0,74,0.00,CLR,,0.00,WeatherDisplay:10.37,2013-04-06 13:50:00,
2013-04-06 15:55:00,61.3,53.0,29.48,West,270,3.0,5.0,74,0.00,CLR,,0.00,WeatherDisplay:10.37,2013-04-06 13:55:00,
2013-04-06 16:00:00,60.8,53.2,29.48,West,270,3.0,7.0,76,0.00,CLR,,0.00,WeatherDisplay:10.37,2013-04-06 14:00:00,
2013-04-06 16:05:00,60.8,53.2,29.48,West,270,3.0,7.0,76,0.00,CLR,,0.00,WeatherDisplay:10.37,2013-04-06 14:05:00,
2013-04-06 16:10:00,60.8,53.2,29.48,West,270,3.0,7.0,76,0.00,CLR,,0.00,WeatherDisplay:10.37,2013-04-06 14:10:00,
2013-04-06 16:15:00,60.4,52.8,29.48,West,270,3.0,7.0,76,0.00,CLR,,0.00,WeatherDisplay:10.37,2013-04-06 14:15:00,
2013-04-06 16:20:00,60.4,52.8,29.48,West,270,3.0,6.0,76,0.00,CLR,,0.00,WeatherDisplay:10.37,2013-04-06 14:20:00,
2013-04-06 16:25:00,60.4,52.8,29.48,West,270,3.0,6.0,76,0.00,CLR,,0.00,WeatherDisplay:10.37,2013-04-06 14:25:00,
2013-04-06 16:30:00,60.6,53.4,29.48,West,272,1.0,6.0,77,0.00,CLR,,0.00,WeatherDisplay:10.37,2013-04-06 14:30:00,
2013-04-06 16:35:00,60.6,53.4,29.48,WNW,292,1.0,2.0,77,0.00,CLR,,0.00,WeatherDisplay:10.37,2013-04-06 14:35:00,
2013-04-06 16:40:00,60.6,53.4,29.48,NE,45,1.0,2.0,77,0.00,CLR,,0.00,WeatherDisplay:10.37,2013-04-06 14:40:00,
2013-04-06 16:45:00,61.0,53.7,29.49,NNE,31,1.0,2.0,77,0.00,CLR,,0.00,WeatherDisplay:10.37,2013-04-06 14:45:00,
2013-04-06 16:50:00,61.0,53.7,29.49,NNW,338,1.0,2.0,77,0.00,CLR,,0.00,WeatherDisplay:10.37,2013-04-06 14:50:00,
2013-04-06 16:55:00,61.0,53.7,29.49,NW,315,1.0,2.0,77,0.00,CLR,,0.00,WeatherDisplay:10.37,2013-04-06 14:55:00,
2013-04-06 17:00:00,61.3,53.7,29.50,WNW,302,0.0,2.0,76,0.00,CLR,,0.00,WeatherDisplay:10.37,2013-04-06 15:00:00,
2013-04-06 17:05:00,61.3,53.7,29.50,West,279,0.0,1.0,76,0.00,CLR,,0.00,WeatherDisplay:10.37,2013-04-06 15:05:00,
2013-04-06 17:10:00,61.3,53.7,29.50,West,270,0.0,1.0,76,0.00,CLR,,0.00,WeatherDisplay:10.37,2013-04-06 15:10:00,
2013-04-06 17:15:00,61.2,53.5,29.50,WNW,282,0.0,1.0,76,0.00,CLR,,0.00,WeatherDisplay:10.37,2013-04-06 15:15:00,
2013-04-06 17:20:00,61.2,53.5,29.50,NNE,21,0.0,1.0,76,0.00,CLR,,0.00,WeatherDisplay:10.37,2013-04-06 15:20:00,
2013-04-06 17:25:00,61.2,53.5,29.50,NE,45,0.0,1.0,76,0.00,CLR,,0.00,WeatherDisplay:10.37,2013-04-06 15:25:00,
2013-04-06 17:30:00,61.3,53.7,29.50,NE,45,1.0,2.0,76,0.00,CLR,,0.00,WeatherDisplay:10.37,2013-04-06 15:30:00,
2013-04-06 17:35:00,61.3,53.7,29.50,NE,45,1.0,2.0,76,0.00,CLR,,0.00,WeatherDisplay:10.37,2013-04-06 15:35:00,
2013-04-06 17:40:00,61.3,53.7,29.50,NE,45,1.0,2.0,76,0.00,CLR,,0.00,WeatherDisplay:10.37,2013-04-06 15:40:00,
2013-04-06 17:45:00,61.3,53.3,29.50,NE,36,1.0,2.0,75,0.00,CLR,,0.00,WeatherDisplay:10.37,2013-04-06 15:45:00,
2013-04-06 17:50:00,61.3,53.3,29.50,NNE,13,1.0,2.0,75,0.00,CLR,,0.00,WeatherDisplay:10.37,2013-04-06 15:50:00,
2013-04-06 17:55:00,61.3,53.3,29.50,North,0,1.0,2.0,75,0.00,CLR,,0.00,WeatherDisplay:10.37,2013-04-06 15:55:00,
2013-04-06 18:00:00,60.8,52.8,29.50,NNW,337,0.0,2.0,75,0.00,CLR,,0.00,WeatherDisplay:10.37,2013-04-06 16:00:00,
2013-04-06 18:05:00,60.8,52.8,29.50,WNW,284,0.0,2.0,75,0.00,CLR,,0.00,WeatherDisplay:10.37,2013-04-06 16:05:00,
2013-04-06 18:10:00,60.8,52.8,29.50,West,270,0.0,2.0,75,0.00,CLR,,0.00,WeatherDisplay:10.37,2013-04-06 16:10:00,
2013-04-06 18:15:00,60.8,52.8,29.50,WNW,288,1.0,4.0,75,0.00,CLR,,0.00,WeatherDisplay:10.37,2013-04-06 16:15:00,
2013-04-06 18:20:00,60.8,52.8,29.50,NNE,29,1.0,4.0,75,0.00,CLR,,0.00,WeatherDisplay:10.37,2013-04-06 16:20:00,
2013-04-06 18:25:00,60.8,52.8,29.50,NE,45,1.0,4.0,75,0.00,CLR,,0.00,WeatherDisplay:10.37,2013-04-06 16:25:00,
2013-04-06 18:30:00,60.6,52.3,29.50,NNE,33,1.0,4.0,74,0.00,CLR,,0.00,WeatherDisplay:10.37,2013-04-06 16:30:00,
2013-04-06 18:35:00,60.6,52.3,29.50,North,357,1.0,3.0,74,0.00,CLR,,0.00,WeatherDisplay:10.37,2013-04-06 16:35:00,
2013-04-06 18:40:00,60.6,52.3,29.50,NNW,338,1.0,3.0,74,0.00,CLR,,0.00,WeatherDisplay:10.37,2013-04-06 16:40:00,
2013-04-06 18:45:00,60.6,51.9,29.50,NNW,344,1.0,3.0,73,0.00,CLR,,0.00,WeatherDisplay:10.37,2013-04-06 16:45:00,
2013-04-06 18:50:00,60.6,51.9,29.50,NE,34,1.0,3.0,73,0.00,CLR,,0.00,WeatherDisplay:10.37,2013-04-06 16:50:00,
2013-04-06 18:55:00,60.6,51.9,29.50,East,90,1.0,3.0,73,0.00,CLR,,0.00,WeatherDisplay:10.37,2013-04-06 16:55:00,
2013-04-06 19:00:00,60.4,51.4,29.50,ENE,65,1.0,4.0,72,0.00,CLR,,0.00,WeatherDisplay:10.37,2013-04-06 17:00:00,
2013-04-06 19:05:00,60.4,51.4,29.50,WNW,297,1.0,4.0,72,0.00,CLR,,0.00,WeatherDisplay:10.37,2013-04-06 17:05:00,
2013-04-06 19:10:00,60.4,51.4,29.50,WNW,292,1.0,4.0,72,0.00,CLR,,0.00,WeatherDisplay:10.37,2013-04-06 17:10:00,
2013-04-06 19:15:00,60.3,50.8,29.50,WNW,294,1.0,4.0,71,0.00,CLR,,0.00,WeatherDisplay:10.37,2013-04-06 17:15:00,
2013-04-06 19:20:00,60.3,50.8,29.50,WNW,303,1.0,2.0,71,0.00,CLR,,0.00,WeatherDisplay:10.37,2013-04-06 17:20:00,
2013-04-06 19:25:00,60.3,50.8,29.50,NW,315,1.0,2.0,71,0.00,CLR,,0.00,WeatherDisplay:10.37,2013-04-06 17:25:00,
2013-04-06 19:30:00,60.1,50.6,29.49,NNW,335,2.0,4.0,71,0.00,CLR,,0.00,WeatherDisplay:10.37,2013-04-06 17:30:00,
2013-04-06 19:35:00,60.1,50.6,29.49,North,355,2.0,4.0,71,0.00,CLR,,0.00,WeatherDisplay:10.37,2013-04-06 17:35:00,
2013-04-06 19:40:00,60.1,50.6,29.49,North,0,2.0,4.0,71,0.00,CLR,,0.00,WeatherDisplay:10.37,2013-04-06 17:40:00,
2013-04-06 19:45:00,59.7,50.3,29.49,North,354,1.0,4.0,71,0.00,CLR,,0.00,WeatherDisplay:10.37,2013-04-06 17:45:00,
2013-04-06 19:50:00,59.7,50.3,29.49,NNW,332,1.0,4.0,71,0.00,CLR,,0.00,WeatherDisplay:10.37,2013-04-06 17:50:00,
2013-04-06 19:55:00,59.7,50.3,29.49,NW,315,1.0,4.0,71,0.00,CLR,,0.00,WeatherDisplay:10.37,2013-04-06 17:55:00,
2013-04-06 20:00:00,59.7,50.3,29.49,NW,324,0.0,4.0,71,0.00,CLR,,0.00,WeatherDisplay:10.37,2013-04-06 18:00:00,
2013-04-06 20:05:00,59.7,50.3,29.49,North,358,0.0,3.0,71,0.00,CLR,,0.00,WeatherDisplay:10.37,2013-04-06 18:05:00,
2013-04-06 20:10:00,59.7,50.3,29.49,NNE,22,0.0,3.0,71,0.00,CLR,,0.00,WeatherDisplay:10.37,2013-04-06 18:10:00,
2013-04-06 20:15:00,59.5,49.7,29.49,NNE,15,1.0,3.0,70,0.00,CLR,,0.00,WeatherDisplay:10.37,2013-04-06 18:15:00,
2013-04-06 20:20:00,59.5,49.7,29.49,NNW,343,1.0,3.0,70,0.00,CLR,,0.00,WeatherDisplay:10.37,2013-04-06 18:20:00,
2013-04-06 20:25:00,59.5,49.7,29.49,NW,315,1.0,3.0,70,0.00,CLR,,0.00,WeatherDisplay:10.37,2013-04-06 18:25:00,
2013-04-06 20:30:00,59.2,49.8,29.48,NW,315,1.0,3.0,71,0.00,CLR,,0.00,WeatherDisplay:10.37,2013-04-06 18:30:00,
2013-04-06 20:35:00,59.2,49.8,29.48,NW,315,1.0,3.0,71,0.00,CLR,,0.00,WeatherDisplay:10.37,2013-04-06 18:35:00,
2013-04-06 20:40:00,59.2,49.8,29.48,NW,315,1.0,3.0,71,0.00,CLR,,0.00,WeatherDisplay:10.37,2013-04-06 18:40:00,
2013-04-06 20:45:00,58.8,49.4,29.48,NW,315,2.0,4.0,71,0.00,CLR,,0.00,WeatherDisplay:10.37,2013-04-06 18:45:00,
2013-04-06 20:50:00,58.8,49.4,29.48,NW,315,2.0,4.0,71,0.00,CLR,,0.00,WeatherDisplay:10.37,2013-04-06 18:50:00,
2013-04-06 20:55:00,58.8,49.4,29.48,NW,315,2.0,4.0,71,0.00,CLR,,0.00,WeatherDisplay:10.37,2013-04-06 18:55:00,
2013-04-06 21:00:00,58.3,48.9,29.48,NW,315,1.0,4.0,71,0.00,CLR,,0.00,WeatherDisplay:10.37,2013-04-06 19:00:00,
2013-04-06 21:05:00,58.3,48.9,29.48,NW,315,1.0,4.0,71,0.00,CLR,,0.00,WeatherDisplay:10.37,2013-04-06 19:05:00,
2013-04-06 21:10:00,58.3,48.9,29.48,NW,315,1.0,4.0,71,0.00,CLR,,0.00,WeatherDisplay:10.37,2013-04-06 19:10:00,
2013-04-06 21:15:00,57.9,48.6,29.47,NW,315,1.0,4.0,71,0.00,CLR,,0.00,WeatherDisplay:10.37,2013-04-06 19:15:00,
2013-04-06 21:20:00,57.9,48.6,29.47,NW,315,1.0,3.0,71,0.00,CLR,,0.00,WeatherDisplay:10.37,2013-04-06 19:20:00,
2013-04-06 21:25:00,57.9,48.6,29.47,NW,315,1.0,3.0,71,0.00,CLR,,0.00,WeatherDisplay:10.37,2013-04-06 19:25:00,
2013-04-06 21:30:00,57.6,48.2,29.47,NNW,328,0.0,3.0,71,0.00,CLR,,0.00,WeatherDisplay:10.37,2013-04-06 19:30:00,
2013-04-06 21:35:00,57.6,48.2,29.47,North,351,0.0,2.0,71,0.00,CLR,,0.00,WeatherDisplay:10.37,2013-04-06 19:35:00,
2013-04-06 21:40:00,57.6,48.2,29.47,North,0,0.0,2.0,71,0.00,CLR,,0.00,WeatherDisplay:10.37,2013-04-06 19:40:00,
2013-04-06 21:45:00,57.2,47.9,29.46,North,351,3.0,4.0,71,0.00,CLR,,0.00,WeatherDisplay:10.37,2013-04-06 19:45:00,
2013-04-06 21:50:00,57.2,47.9,29.46,NNW,341,3.0,4.0,71,0.00,CLR,,0.00,WeatherDisplay:10.37,2013-04-06 19:50:00,
2013-04-06 21:55:00,57.2,47.9,29.46,NNW,338,3.0,4.0,71,0.00,CLR,,0.00,WeatherDisplay:10.37,2013-04-06 19:55:00,
2013-04-06 22:00:00,56.8,47.5,29.46,NNW,334,0.0,4.0,71,0.00,CLR,,0.00,WeatherDisplay:10.37,2013-04-06 20:00:00,
2013-04-06 22:05:00,56.8,47.5,29.46,NW,317,0.0,1.0,71,0.00,CLR,,0.00,WeatherDisplay:10.37,2013-04-06 20:05:00,
2013-04-06 22:10:00,56.8,47.5,29.46,WNW,292,0.0,1.0,71,0.00,CLR,,0.00,WeatherDisplay:10.37,2013-04-06 20:10:00,
2013-04-06 22:15:00,56.7,47.4,29.45,WNW,288,1.0,2.0,71,0.00,CLR,,0.00,WeatherDisplay:10.37,2013-04-06 20:15:00,
2013-04-06 22:20:00,56.7,47.4,29.45,South,176,1.0,2.0,71,0.00,CLR,,0.00,WeatherDisplay:10.37,2013-04-06 20:20:00,
2013-04-06 22:25:00,56.7,47.4,29.45,SE,135,1.0,2.0,71,0.00,CLR,,0.00,WeatherDisplay:10.37,2013-04-06 20:25:00,
2013-04-06 22:30:00,56.5,47.6,29.44,ESE,123,1.0,3.0,72,0.00,CLR,,0.00,WeatherDisplay:10.37,2013-04-06 20:30:00,
2013-04-06 22:35:00,56.5,47.6,29.44,NNE,24,1.0,3.0,72,0.00,CLR,,0.00,WeatherDisplay:10.37,2013-04-06 20:35:00,
2013-04-06 22:40:00,56.5,47.6,29.44,North,0,1.0,3.0,72,0.00,CLR,,0.00,WeatherDisplay:10.37,2013-04-06 20:40:00,
2013-04-06 22:45:00,56.5,47.6,29.44,North,9,1.0,3.0,72,0.00,CLR,,0.00,WeatherDisplay:10.37,2013-04-06 20:45:00,
2013-04-06 22:50:00,56.5,47.6,29.44,NNE,32,1.0,2.0,72,0.00,CLR,,0.00,WeatherDisplay:10.37,2013-04-06 20:50:00,
2013-04-06 22:55:00,56.5,47.6,29.44,NE,45,1.0,2.0,72,0.00,CLR,,0.00,WeatherDisplay:10.37,2013-04-06 20:55:00,
2013-04-06 23:00:00,56.1,47.2,29.43,NNE,31,1.0,3.0,72,0.00,CLR,,0.00,WeatherDisplay:10.37,2013-04-06 21:00:00,
2013-04-06 23:05:00,56.1,47.2,29.43,NNW,338,1.0,3.0,72,0.00,CLR,,0.00,WeatherDisplay:10.37,2013-04-06 21:05:00,
2013-04-06 23:10:00,56.1,47.2,29.43,NW,315,1.0,3.0,72,0.00,CLR,,0.00,WeatherDisplay:10.37,2013-04-06 21:10:00,
2013-04-06 23:15:00,56.1,47.2,29.43,NNW,334,0.0,3.0,72,0.00,CLR,,0.00,WeatherDisplay:10.37,2013-04-06 21:15:00,
2013-04-06 23:20:00,56.1,47.2,29.43,North,10,0.0,2.0,72,0.00,CLR,,0.00,WeatherDisplay:10.37,2013-04-06 21:20:00,
2013-04-06 23:25:00,56.1,47.2,29.43,NNE,22,0.0,2.0,72,0.00,CLR,,0.00,WeatherDisplay:10.37,2013-04-06 21:25:00,
2013-04-06 23:30:00,55.9,47.0,29.42,NE,34,0.0,2.0,72,0.00,CLR,,0.00,WeatherDisplay:10.37,2013-04-06 21:30:00,
2013-04-06 23:35:00,55.9,47.0,29.42,ENE,71,0.0,2.0,72,0.00,CLR,,0.00,WeatherDisplay:10.37,2013-04-06 21:35:00,
2013-04-06 23:40:00,55.9,47.0,29.42,East,90,0.0,2.0,72,0.00,CLR,,0.00,WeatherDisplay:10.37,2013-04-06 21:40:00,
2013-04-06 23:45:00,55.8,46.9,29.42,East,79,1.0,4.0,72,0.00,CLR,,0.00,WeatherDisplay:10.37,2013-04-06 21:45:00,
2013-04-06 23:50:00,55.8,46.9,29.42,NE,55,1.0,4.0,72,0.00,CLR,,0.00,WeatherDisplay:10.37,2013-04-06 21:50:00,
2013-04-06 23:55:00,55.8,46.9,29.42,NE,45,1.0,4.0,72,0.00,CLR,,0.00,WeatherDisplay:10.37,2013-04-06 21:55:00,